Preview of NWS' New Version of Forecast
This preview is not operational and should not be used for support decisions.

Regional Weather Roundup (RWR)

Issued by National Weather Service (NWS)

                            
000
ASUS43 KDMX 190101
RWRIA 

WEATHER ROUNDUP FOR IOWA
NATIONAL WEATHER SERVICE DES MOINES IA
800 PM CDT THU APR 18 2019

NOTE: "FAIR" INDICATES FEW OR NO CLOUDS BELOW 12,000 FEET WITH NO
SIGNIFICANT WEATHER AND/OR OBSTRUCTIONS TO VISIBILITY.

* - THESE STATIONS ARE NOT NWS STATIONS...THUS NOT UNDER NWS
QUALITY CONTROL.  THEY ALSO DO NOT REPORT WEATHER SUCH 
AS PRECIPITATION OR FOG.  

IAZ001>003-012>014-020>022-031>034-043>046-190200-
   NORTHWEST IOWA
  
CITY           SKY/WX    TMP DP  RH WIND       PRES   REMARKS
CARROLL *      CLOUDY    52  41  66 N16       29.95R                  
CHEROKEE *     CLOUDY    49  39  70 N9        29.98R                  
DENISON *      CLOUDY    48  39  71 N17G24    29.98R                  
LE MARS *      PTCLDY    50  36  57 N8        29.98R                  
SHELDON *      PTCLDY    45  45 100 N6        29.96R                  
SIOUX CITY     CLEAR     50  37  61 N10       29.99R                  
SPENCER        MOCLDY    49  39  68 N9        29.96R                  
STORM LAKE *   MOCLDY    46  43  87 N14       29.94R                  
$$
 
IAZ055>058-069>071-079>083-090>094-190200-
   SOUTHWEST IOWA
  
CITY           SKY/WX    TMP DP  RH WIND       PRES   REMARKS
ATLANTIC *     CLOUDY    50  39  66 N15       29.94R                  
AUDUBON *      MOCLDY    48  39  71 CALM      29.95R                  
CLARINDA *     CLOUDY    54  39  58 N14       29.93R                  
COUNCIL BLFS * CLOUDY    50  39  66 N16G25    29.96R                  
CRESTON *      CLOUDY    50  39  66 N20G25    29.91R                  
HARLAN  *      MOCLDY    48  39  71 N13G20    29.96R                  
LAMONI         CLOUDY    52  37  56 N13       29.88R                  
RED OAK *      DRIZZLE   50  41  71 N14       29.94R                  
SHENANDOAH *   CLOUDY    54  39  58 N13G20    29.92R                  
$$
 
IAZ047>049-059>061-072>074-084-190200-
   CENTRAL IOWA
  
CITY           SKY/WX    TMP DP  RH WIND       PRES   REMARKS
AMES           CLOUDY    51  37  58 N17       29.91R                  
ANKENY *       CLOUDY    50  37  62 N13G21    29.92R                  
BOONE *        MOCLDY    48  41  76 N14       29.91R                  
CHARITON *     CLOUDY    50  37  62 N13G18    29.88R                  
DES MOINES     CLOUDY    50  36  58 N9G21     29.91R                  
GRINNELL*      CLOUDY    49  37  63 N13G23    29.90R                  
KNOXVILLE *    CLOUDY    52  37  58 N14       29.88R                  
MARSHALLTOWN   MOCLDY    49  38  65 N13       29.89R                  
NEWTON *       CLOUDY    50  37  62 N12       29.89R                  
PELLA *        CLOUDY    51  36  55 N12G17    29.90R                  
PERRY *        CLOUDY    50  39  66 N10       29.93R                  
$$
 
IAZ004>006-015-016-023>025-035-036-190200-
   NORTH CENTRAL IOWA
  
CITY           SKY/WX    TMP DP  RH WIND       PRES   REMARKS
ALGONA *       CLEAR     46  45  93 N8        29.94R                  
CLARION *      MOCLDY    48  41  76 N10       29.93R                  
ESTHERVILLE    MOCLDY    46  41  82 N7        29.95R                  
FORT DODGE *   CLOUDY    48  39  71 N6        29.94R                  
MASON CITY     MOCLDY    45  41  86 N8        29.93R                  
FOREST CITY *  MOCLDY    48  39  71 N9        29.93R                  
IOWA FALLS *   FAIR      49  40  72 N10       29.91R                  
$$

IAZ007>011-017>019-026>030-037>042-050>054-066-190200-
   NORTHEAST IOWA
  
CITY           SKY/WX    TMP DP  RH WIND       PRES   REMARKS
CEDAR RAPIDS   CLOUDY    48  36  63 N16G26    29.85R                  
CHARLES CITY * MOCLDY    46  39  76 N12       29.90R                  
CLINTON *      CLOUDY    47  38  71 N10       29.84R                  
DECORAH *      MOCLDY    46  36  66 N9G15     29.87R                  
DUBUQUE        CLOUDY    46  34  62 N15       29.84R                  
MONTICELLO *   MOCLDY    48  36  61 N10G17    29.86R                  
OELWEIN *      MOCLDY    46  39  76 N9        29.88R                  
WATERLOO       FAIR      47  37  68 N9        29.89R                  
$$
 
IAZ064-065-067-068-078-190200-
   EAST CENTRAL IOWA
  
CITY           SKY/WX    TMP DP  RH WIND       PRES   REMARKS
DAVENPORT      CLOUDY    47  37  68 N12       29.84R                  
IOWA CITY      CLOUDY    51  36  56 N15G28    29.86R                  
MT. PLEASANT * CLOUDY    52  37  58 N12       29.83F                  
MUSCATINE *    CLOUDY    50  37  62 N13       29.84S                  
QUAD CITIES    CLOUDY    50  36  58 N10       29.81R                  
$$
 
IAZ062-063-075>077-085>089-095>099-190200-
   SOUTHEAST IOWA
  
CITY           SKY/WX    TMP DP  RH WIND       PRES   REMARKS
BURLINGTON     CLOUDY    51  37  58 N15       29.81R                  
FAIRFIELD *    CLOUDY    50  36  57 N13G18    29.84S                  
FORT MADISON * CLOUDY    52  39  62 N10       29.82F                  
KEOKUK *       CLOUDY    52  37  58 N10G18    29.81S                  
OSKALOOSA *    CLOUDY    51  35  56 N13       29.87R                  
CENTERVILLE *  MOCLDY    50  37  62 NW17      29.87R                  
OTTUMWA        CLOUDY    51  35  54 N16       29.86R                  
WASHINGTON *   CLOUDY    50  37  62 N14G22    29.85R                  
$$

ABBREVIATIONS USED IN REMARKS
   TC - TEMPERATURES IN CELSIUS
  WCI - WIND CHILL INDEX
   HX - HEAT INDEX
  VSB - VISIBILITY  
$$